Wetbulb
28.41 24.23 22.15 25.40 26.50 24.93 22.90 20.35 18.91 23.13 27.10 24.62 23.07 23.26 26.39 30.01 30.47 29.98 31.06 32.06 32.36 32.69 34.63 35.19 35.45 36.60 37.48 38.80 39.86 40.44 40.79 41.95 43.23 43.85 43.74 45.42 46.61 49.78 53.69 56.93 60.61 63.44 63.98 64.18
24.16 20.48 27.30 27.05 25.26 22.73 21.68 19.06 18.89 23.20 26.07 24.56 23.42 22.32 26.80 28.46 29.13 30.45 30.76 30.48 30.25 30.96 31.92 32.82 33.64 34.34 35.28 35.60 36.61 38.05 39.52 40.59 41.84 43.47 44.23 45.26 45.74 47.53 52.12 57.21 61.30 62.55 63.02 63.06
20.98 25.03 27.52 23.75 22.85 20.46 21.02 19.26 19.50 19.18 23.65 25.23 22.80 20.07 23.95 28.74 30.24 29.04 28.33 28.60 29.66 29.70 29.65 30.74 31.38 32.16 33.13 33.44 34.55 35.90 37.79 39.33 40.83 41.55 43.59 45.09 45.93 46.54 48.42 57.04 59.80 61.45 62.28 61.92
22.35 25.66 22.13 22.13 20.28 21.95 15.62 24.08 21.69 19.73 17.95 12.43 22.56 8.95 20.34 24.75 25.39 26.21 27.14 28.00 28.39 28.93 29.54 29.66 29.62 29.91 30.87 31.86 33.73 34.82 35.98 38.11 39.40 41.11 41.36 41.76 42.48 43.46 48.70 53.94 59.59 59.47 61.37 61.03
21.40 23.54 21.48 18.81 19.88 22.99 18.58 23.96 21.01 19.72 16.38 14.80 16.65 11.31 18.91 23.29 23.24 24.12 24.98 26.40 27.36 28.03 27.67 27.32 27.80 28.67 30.07 31.32 32.35 34.00 35.54 37.53 38.37 39.57 40.83 41.50 41.31 43.85 48.78 53.86 57.49 58.08 59.67 59.54
22.35 27.59 23.35 21.95 23.52 23.45 24.56 19.79 19.66 12.99 13.63 7.88 12.92 13.19 16.11 21.29 19.26 21.72 24.53 25.33 25.85 26.10 26.25 26.74 28.03 28.74 29.09 30.77 31.51 32.28 33.95 35.93 37.44 38.93 40.56 41.25 42.31 44.52 46.01 51.82 54.82 56.96 58.05 57.30
21.81 22.16 24.19 24.39 19.73 16.59 16.88 16.15 8.69 7.27 7.33 7.21 16.55 13.40 17.01 24.25 21.90 19.99 21.52 23.27 24.42 25.01 24.75 24.97 25.27 25.97 27.09 27.88 29.43 30.96 31.98 33.18 36.13 38.50 40.15 41.11 42.62 43.93 47.88 51.90 54.59 55.66 56.08 54.91
12.56 10.98 18.33 24.20 20.84 17.62 16.72 15.11 8.39 0.91 3.96 8.12 16.52 8.10 17.23 21.07 23.50 24.29 24.94 23.30 23.81 23.25 23.63 23.64 24.33 24.62 25.13 25.79 26.93 28.69 30.05 31.95 34.12 37.36 40.40 42.09 42.85 44.69 50.41 53.09 55.41 55.70 55.17 53.94
13.23 12.05 22.47 22.50 24.00 20.92 14.09 12.06 17.23 11.24 7.05 4.95 12.77 15.69 22.73 24.84 22.78 22.63 22.07 21.39 21.12 21.04 21.47 22.11 23.12 23.66 23.65 24.35 25.25 27.19 28.79 30.67 33.34 34.87 39.80 42.77 43.66 45.00 51.26 54.63 56.33 55.41 54.72 53.15
18.06 10.67 20.82 19.09 21.16 21.59 18.46 20.39 11.32 13.02 2.44 1.76 10.12 11.21 12.94 17.55 16.64 19.72 17.99 19.18 19.36 19.52 19.66 20.66 21.20 21.86 22.82 23.78 24.79 26.54 27.23 28.45 32.72 35.19 37.36 41.85 45.50 47.44 52.76 55.20 54.43 52.86 52.73 51.84
20.37 15.15 14.59 16.66 15.27 14.76 15.24 13.40 14.78 15.11 12.78 5.76 2.89 8.02 20.70 16.98 16.59 16.27 17.59 18.98 18.12 18.15 18.63 18.96 20.01 21.07 22.15 23.03 23.70 24.04 24.58 26.08 30.17 34.43 37.95 41.85 46.29 49.82 53.72 54.24 52.66 52.00 50.20 49.86
20.05 16.29 11.27 13.93 15.73 16.22 15.89 13.92 14.79 9.73 7.26 10.95 8.46 8.02 18.24 17.79 17.71 18.71 17.47 17.87 18.47 18.24 18.41 18.81 19.16 19.89 19.68 20.39 21.58 22.32 22.74 24.79 28.59 32.51 35.93 42.71 48.81 51.20 51.87 51.76 50.56 50.26 49.60 48.90
20.12 14.35 8.56 10.41 13.47 13.76 13.98 14.89 15.73 16.11 13.77 7.74 4.36 9.27 19.31 18.86 21.26 19.57 16.58 16.87 17.24 17.48 17.07 16.85 17.12 17.44 17.38 17.82 19.56 20.67 21.48 23.49 27.60 32.70 34.86 37.03 41.13 40.59 42.07 43.14 45.86 48.20 47.80 47.22
24.90 16.82 11.80 7.30 11.14 15.96 10.16 13.58 13.39 12.60 8.14 8.72 9.23 10.91 15.93 19.68 19.51 17.16 15.97 16.25 16.28 16.25 15.47 15.50 15.61 16.02 15.79 16.79 18.10 19.48 20.60 23.74 25.29 31.86 33.82 34.28 35.46 35.64 35.96 39.28 38.03 43.04 45.25 44.08
21.60 13.39 13.58 13.18 14.69 14.23 11.93 11.22 11.76 9.29 10.45 7.26 10.55 11.15 15.93 19.07 17.25 16.27 16.51 16.05 15.33 14.23 14.14 14.07 14.00 14.59 14.73 15.02 16.63 18.87 19.42 20.68 22.25 30.06 30.43 31.64 33.75 34.60 35.04 35.51 35.84 36.49 37.20 38.43
19.79 11.99 13.86 11.47 12.75 10.56 9.78 11.52 8.90 7.94 8.97 9.48 10.62 10.54 19.29 19.29 17.15 17.87 15.70 14.64 13.49 12.85 12.60 12.95 12.95 13.62 13.67 14.06 15.63 17.10 18.15 19.36 21.19 24.16 27.11 29.25 33.38 32.55 32.47 33.65 33.88 34.41 34.17 34.68
15.60 13.14 10.64 6.28 7.46 8.14 6.20 11.72 8.28 10.77 11.86 14.43 11.94 18.80 17.10 18.13 17.27 17.59 15.12 13.38 12.62 12.40 11.95 11.66 11.95 12.31 13.34 13.62 15.78 15.57 17.00 19.15 19.97 21.17 23.77 25.87 27.82 30.54 31.33 31.72 32.34 32.36 32.98 34.01
14.95 13.40 13.03 8.04 7.44 1.34 14.35 9.87 11.18 12.81 15.89 17.34 16.97 18.29 18.98 16.35 16.67 16.86 15.82 13.41 12.54 11.91 11.76 11.76 11.96 11.73 13.07 14.00 15.60 16.59 16.90 17.84 18.57 19.63 20.59 22.85 24.88 25.58 27.18 28.94 29.62 31.07 31.63 31.80
19.37 14.70 10.78 7.29 5.99 10.29 15.66 14.40 15.05 12.76 14.71 18.87 17.42 17.80 16.66 14.76 15.45 16.70 14.92 13.38 12.01 11.69 12.11 12.61 12.69 12.50 12.63 12.74 15.78 16.17 14.96 16.43 17.10 17.85 19.08 20.72 23.02 23.93 24.91 25.19 26.53 28.97 30.13 29.96
18.93 17.82 13.85 7.58 2.51 1.36 13.51 16.73 15.07 12.91 12.72 19.48 15.38 17.57 16.61 17.26 16.48 16.57 14.28 13.29 13.08 12.93 12.61 12.33 12.55 12.56 11.21 12.19 14.78 14.33 13.21 13.72 13.25 16.02 18.35 20.96 21.24 21.70 22.13 24.00 25.15 27.81 29.07 28.97
10.15 12.96 10.09 8.26 7.26 10.08 16.94 17.51 19.10 10.42 14.09 16.58 16.49 18.04 16.47 18.15 19.65 14.75 10.83 12.06 10.88 10.60 10.79 13.07 12.32 10.52 9.97 11.92 13.73 11.37 10.87 10.30 12.97 16.64 18.01 18.68 20.57 20.63 22.13 22.62 23.76 25.16 25.76 26.34
10.83 10.30 8.53 8.47 5.52 3.20 18.53 19.36 15.30 20.38 18.81 16.74 16.11 17.58 17.47 18.74 14.44 13.09 12.60 12.40 12.75 12.18 12.20 11.79 11.19 10.12 9.74 10.53 11.78 9.94 7.95 9.92 12.79 15.40 15.82 16.48 18.10 20.76 22.29 22.57 23.36 24.31 25.60 25.17
11.84 15.91 14.04 12.61 13.28 20.58 20.59 21.71 22.07 16.70 19.50 21.62 18.38 18.40 18.13 17.70 16.17 15.71 16.07 15.69 15.55 14.88 13.72 12.92 11.63 11.03 9.76 9.16 8.57 8.11 7.35 9.32 11.57 12.98 13.16 14.35 16.69 18.10 20.78 22.48 23.57 24.43 25.34 25.13
18.45 19.40 16.43 14.95 19.34 20.10 22.58 22.84 20.43 19.42 19.75 22.45 21.81 21.56 19.79 18.67 18.13 16.73 16.45 16.31 16.16 15.16 13.68 12.54 12.05 10.47 9.11 8.95 8.01 7.05 7.08 8.13 10.46 11.13 11.67 13.61 14.19 16.96 18.48 22.27 23.26 24.49 24.88 25.10
18.61 19.43 17.15 17.29 20.80 22.24 21.73 22.10 23.77 22.36 20.26 20.55 21.94 21.37 20.69 19.77 17.95 17.65 16.37 15.80 15.72 14.82 13.04 11.85 10.61 10.01 8.36 8.07 6.90 4.44 4.30 6.11 10.60 10.43 10.62 11.66 13.07 14.04 16.47 18.21 21.30 22.77 25.05 26.13
20.39 18.22 16.42 15.84 22.11 19.84 21.08 24.10 24.31 22.86 22.88 23.37 21.38 20.36 20.32 20.30 18.66 16.93 16.03 16.25 15.45 14.02 12.15 11.26 9.62 9.16 7.29 6.43 5.19 2.30 -0.26 2.46 8.13 10.00 9.92 8.79 11.08 12.20 13.48 15.80 18.98 21.70 23.87 24.60
MSLP
1018.57 1018.21 1016.43 1015.97 1015.87 1015.72 1015.19 1014.55 1013.63 1012.78 1012.76 1012.89 1011.77 1010.73 1008.98 1007.91 1008.30 1007.55 1007.39 1007.00 1007.00 1007.33 1007.40 1007.67 1007.74 1007.34 1006.78 1006.03 1005.37 1004.85 1004.37 1003.75 1003.78 1003.60 1003.23 1002.78 1002.48 1002.25 1001.48 1001.12 1001.12 1001.18 1001.22 1001.73
1018.39 1016.85 1015.63 1015.69 1015.70 1015.68 1015.01 1014.25 1013.36 1012.75 1012.67 1012.54 1011.26 1009.49 1007.49 1007.42 1006.83 1006.57 1006.75 1007.27 1007.67 1007.72 1007.58 1007.40 1007.42 1007.06 1006.57 1005.80 1005.23 1004.73 1004.31 1003.66 1003.20 1002.82 1002.38 1002.01 1001.63 1001.57 1000.91 1000.20 999.99 1000.29 1000.64 1001.01
1017.49 1015.53 1015.79 1015.86 1015.26 1015.31 1014.54 1013.72 1013.11 1012.76 1012.38 1012.03 1011.15 1008.00 1006.59 1005.89 1005.51 1006.48 1007.56 1008.19 1008.09 1007.63 1007.35 1007.11 1006.80 1006.54 1006.04 1005.48 1004.96 1004.43 1003.87 1003.32 1002.87 1002.16 1001.68 1001.28 1000.95 1000.96 1000.32 998.93 998.76 999.16 999.66 1000.19
1017.39 1016.24 1016.31 1015.64 1015.03 1015.26 1014.38 1013.50 1013.48 1013.21 1012.88 1012.01 1011.72 1008.28 1006.29 1005.66 1005.64 1006.76 1007.60 1008.08 1007.87 1007.52 1006.95 1006.64 1006.38 1005.95 1005.57 1005.00 1004.59 1004.01 1003.40 1002.71 1002.26 1001.64 1000.79 1000.36 999.94 999.70 998.83 998.13 997.82 998.43 998.93 999.35
1016.19 1015.78 1016.06 1015.54 1015.05 1014.96 1014.17 1014.09 1013.90 1013.50 1012.98 1012.87 1010.83 1010.21 1006.34 1006.37 1005.93 1006.92 1007.97 1008.24 1008.33 1007.90 1007.22 1006.42 1006.06 1005.69 1005.20 1004.66 1003.91 1003.29 1002.51 1001.63 1001.26 1000.88 999.83 999.29 999.00 998.90 998.16 997.33 997.15 997.49 997.97 998.51
1016.91 1016.13 1016.38 1015.33 1015.05 1015.05 1014.80 1014.80 1014.09 1013.84 1013.48 1012.44 1010.59 1009.99 1005.87 1005.89 1006.78 1007.54 1008.07 1008.42 1008.33 1008.02 1007.60 1006.82 1006.10 1005.38 1004.42 1003.92 1003.27 1002.50 1001.57 1000.57 1000.22 999.69 998.69 998.12 997.72 997.80 997.42 996.27 996.25 996.87 996.89 998.04
1016.79 1015.75 1015.44 1015.53 1015.45 1015.60 1015.70 1015.42 1014.14 1013.49 1012.95 1011.27 1010.44 1009.41 1006.79 1006.18 1007.42 1008.28 1008.63 1008.58 1008.34 1008.02 1007.51 1006.90 1006.10 1005.23 1004.36 1003.39 1002.54 1001.81 1000.93 999.83 999.30 998.41 997.56 996.79 996.47 996.69 996.12 995.14 995.50 995.95 996.19 996.91
1017.27 1015.64 1015.53 1015.41 1015.32 1015.27 1015.54 1015.81 1015.02 1013.58 1012.28 1011.15 1010.52 1008.43 1006.40 1006.94 1007.83 1008.37 1008.50 1008.52 1008.25 1007.92 1007.41 1006.79 1005.97 1005.16 1004.18 1003.35 1002.39 1001.32 1000.34 999.27 998.53 997.53 996.38 995.58 995.17 995.29 994.95 994.18 994.59 995.30 995.05 996.30
1017.61 1016.48 1015.65 1015.44 1015.31 1015.73 1015.92 1015.73 1015.18 1014.29 1013.17 1012.24 1009.39 1008.40 1006.83 1006.56 1007.91 1008.38 1008.37 1008.56 1008.22 1007.88 1007.44 1006.76 1006.06 1005.21 1004.30 1003.20 1002.12 1000.92 999.78 998.55 997.43 996.70 995.61 994.44 993.89 994.00 993.48 993.04 993.97 994.81 994.45 995.81
1017.94 1016.57 1015.45 1015.61 1015.68 1015.58 1015.75 1015.63 1015.29 1014.51 1012.86 1010.83 1009.00 1008.08 1007.23 1007.72 1008.76 1008.87 1008.98 1008.85 1008.79 1008.49 1007.89 1007.10 1006.23 1005.31 1004.32 1003.24 1001.94 1000.55 999.28 997.97 996.61 995.65 994.83 993.55 992.75 992.64 992.08 992.47 993.51 994.42 994.50 995.64
1018.15 1017.59 1016.31 1016.34 1015.78 1015.66 1016.00 1015.62 1015.40 1014.91 1013.44 1011.76 1009.89 1008.11 1007.74 1008.62 1009.53 1009.73 1009.60 1009.41 1009.14 1008.74 1008.20 1007.46 1006.40 1005.46 1004.34 1003.01 1001.58 1000.05 998.75 997.47 995.80 994.65 993.58 992.50 991.91 991.40 990.99 991.94 993.11 993.95 994.66 995.33
1017.69 1017.12 1016.26 1015.78 1015.81 1016.21 1016.15 1015.65 1015.44 1014.79 1013.74 1012.94 1012.22 1009.00 1008.83 1009.41 1010.04 1010.17 1010.08 1009.83 1009.36 1009.11 1008.65 1007.83 1006.72 1005.56 1004.26 1002.81 1001.16 999.77 998.64 997.05 995.30 993.55 992.20 990.97 990.43 990.09 990.74 991.76 993.09 993.66 994.72 995.09
1017.34 1016.80 1016.11 1015.55 1016.20 1016.48 1016.14 1015.99 1015.74 1015.34 1014.77 1013.08 1012.60 1009.32 1008.88 1009.74 1009.99 1010.33 1010.44 1010.11 1009.79 1009.51 1008.97 1008.12 1006.92 1005.80 1004.46 1002.96 1001.40 1000.15 998.70 996.89 994.86 992.68 990.88 990.86 990.31 990.43 991.10 992.18 992.56 993.23 994.53 995.40
1016.58 1015.73 1015.95 1015.54 1015.44 1015.68 1015.88 1015.43 1015.55 1015.75 1014.72 1013.13 1011.75 1010.03 1009.35 1009.59 1010.12 1010.41 1010.67 1010.62 1010.52 1010.29 1009.71 1008.78 1007.35 1006.38 1004.86 1003.45 1002.00 1000.40 998.79 997.16 994.55 992.62 992.24 991.15 991.14 991.28 992.09 992.46 993.13 994.13 995.00 996.31
1015.83 1015.26 1015.76 1015.78 1015.22 1015.57 1015.37 1014.99 1014.96 1015.28 1014.53 1014.05 1010.76 1011.19 1010.18 1010.44 1010.95 1011.11 1011.32 1011.18 1010.97 1010.70 1010.21 1009.44 1008.06 1007.09 1005.73 1003.74 1002.28 1000.76 999.04 996.89 995.48 994.85 992.66 992.35 992.78 992.02 993.67 993.85 994.63 994.91 996.08 996.85
1016.03 1015.55 1015.50 1014.97 1014.85 1015.32 1014.81 1014.20 1014.49 1014.50 1014.03 1013.49 1012.21 1011.28 1010.49 1010.99 1011.45 1011.42 1011.64 1011.55 1011.43 1011.27 1011.24 1010.52 1009.03 1007.86 1006.94 1005.35 1003.65 1001.58 1000.13 998.45 997.43 995.90 994.56 994.47 993.78 993.48 995.12 995.55 995.69 995.82 997.10 997.73
1016.14 1015.86 1015.69 1014.45 1015.09 1015.05 1014.45 1013.23 1013.75 1013.57 1013.29 1012.53 1011.63 1010.67 1010.89 1011.04 1011.44 1011.60 1011.93 1012.09 1012.07 1011.86 1011.95 1011.60 1009.97 1008.95 1008.09 1006.54 1005.18 1003.34 1001.80 1000.57 998.69 998.09 997.09 996.22 996.25 995.93 996.94 996.89 997.52 997.92 998.74 999.35
1015.23 1015.59 1015.62 1014.62 1014.87 1014.03 1012.59 1013.11 1013.43 1013.21 1012.46 1011.95 1011.43 1010.90 1010.94 1011.45 1011.72 1012.15 1012.55 1012.69 1012.60 1012.40 1012.45 1012.23 1010.84 1009.82 1009.10 1007.88 1006.28 1005.32 1003.68 1002.24 1001.49 999.71 999.15 998.62 998.46 998.28 998.55 998.44 999.20 999.75 1000.16 1000.25
1014.56 1015.09 1014.78 1014.58 1014.19 1013.22 1011.87 1012.65 1012.96 1012.80 1012.05 1011.45 1011.30 1010.96 1011.17 1011.62 1012.00 1012.15 1012.78 1013.17 1013.17 1013.03 1012.97 1013.16 1011.79 1010.87 1010.09 1009.06 1007.74 1006.68 1005.04 1004.21 1003.22 1001.12 1001.39 1002.15 1001.11 1000.64 1000.70 1000.86 1001.00 1001.19 1001.97 1001.27
1014.23 1014.28 1014.49 1014.56 1013.93 1013.03 1012.04 1012.01 1012.53 1012.51 1011.72 1011.25 1011.44 1011.16 1011.36 1011.57 1011.71 1012.44 1013.07 1013.50 1013.50 1013.23 1013.11 1012.81 1013.14 1011.55 1010.58 1010.08 1009.23 1008.03 1007.18 1006.51 1005.23 1004.80 1004.53 1004.11 1002.91 1002.53 1002.96 1002.76 1002.60 1002.82 1002.61 1003.04
1014.72 1014.28 1014.14 1014.12 1013.54 1012.68 1011.81 1011.96 1012.25 1012.09 1012.02 1011.33 1011.44 1011.30 1011.47 1011.62 1012.16 1012.85 1013.40 1013.78 1014.07 1013.83 1013.35 1012.88 1012.42 1012.78 1012.02 1011.17 1010.32 1009.66 1009.42 1008.83 1008.42 1007.45 1006.92 1005.46 1004.90 1004.95 1004.46 1004.53 1004.04 1003.93 1004.21 1004.48
1015.11 1014.36 1014.24 1014.14 1013.42 1012.51 1011.88 1012.04 1012.10 1011.53 1011.20 1011.38 1011.33 1011.26 1011.27 1011.66 1012.30 1012.86 1013.38 1013.72 1013.94 1013.88 1013.70 1013.44 1012.94 1012.60 1012.69 1012.11 1011.33 1011.20 1010.98 1010.53 1009.80 1009.13 1008.41 1007.45 1006.89 1006.76 1006.78 1006.13 1006.11 1006.23 1005.99 1006.07
1014.75 1014.52 1014.02 1013.98 1012.50 1011.71 1011.66 1011.35 1011.23 1011.60 1011.45 1011.00 1011.18 1010.93 1011.13 1011.52 1012.05 1012.50 1012.94 1013.42 1013.67 1013.82 1013.99 1014.04 1013.89 1013.70 1013.42 1013.44 1013.01 1012.41 1012.31 1011.55 1010.74 1009.92 1009.25 1008.78 1008.36 1008.09 1007.74 1007.45 1007.17 1006.90 1006.94 1007.03
1014.28 1014.12 1013.81 1013.41 1011.87 1011.38 1010.82 1010.91 1011.04 1011.29 1011.37 1010.93 1010.98 1010.87 1010.88 1011.04 1011.54 1012.12 1012.66 1013.19 1013.57 1013.84 1013.99 1014.20 1014.17 1014.18 1014.32 1014.18 1013.83 1013.98 1013.54 1012.49 1011.71 1011.24 1011.01 1010.54 1009.95 1009.58 1009.44 1009.07 1008.82 1008.58 1008.30 1008.28
1014.09 1013.84 1013.18 1012.51 1011.69 1011.12 1010.82 1010.92 1010.84 1010.95 1011.14 1010.99 1010.91 1010.95 1010.88 1010.92 1011.25 1011.74 1012.30 1012.83 1013.40 1013.91 1014.37 1014.56 1014.63 1014.68 1014.71 1014.58 1014.53 1014.68 1014.51 1014.06 1013.47 1013.07 1012.40 1011.75 1011.42 1011.35 1011.14 1010.71 1010.18 1009.83 1009.62 1009.50
1013.46 1013.20 1013.07 1012.26 1012.06 1012.23 1011.52 1011.02 1011.01 1011.05 1010.98 1010.81 1010.82 1010.86 1010.96 1011.04 1011.17 1011.63 1012.10 1012.61 1013.25 1013.91 1014.49 1014.91 1015.28 1015.51 1015.69 1015.72 1015.69 1015.63 1015.36 1014.70 1013.90 1013.43 1013.25 1013.29 1012.99 1012.61 1011.97 1011.33 1010.88 1010.92 1010.79 1010.74
Wind_Speed
4 8 17 18 16 20 21 23 25 24 24 22 25 28 32 30 25 27 24 24 17 14 14 13 13 15 16 17 17 17 19 21 15 12 12 12 13 12 12 11 16 18 15 15
6 16 22 13 14 15 20 23 24 25 20 16 23 31 33 29 27 24 19 10 12 14 15 16 15 16 16 19 18 19 19 20 17 12 12 11 11 12 13 12 14 17 16 15
14 19 15 15 17 14 19 22 23 25 21 19 21 30 24 21 16 3 5 4 11 15 18 18 18 18 18 19 19 19 19 19 18 20 12 13 11 12 14 12 12 15 18 16
12 7 11 14 18 13 19 12 11 14 15 14 14 21 22 9 2 10 6 7 13 19 21 20 19 20 20 20 19 21 21 20 19 22 17 20 13 14 15 13 12 12 17 18
17 24 16 18 17 10 11 12 15 18 18 13 17 9 9 7 12 7 6 11 15 18 21 23 22 21 20 20 19 19 21 20 20 21 21 16 16 14 13 13 16 15 16 16
21 19 12 12 11 8 12 11 15 4 2 6 5 9 16 9 3 4 9 14 17 17 19 21 21 21 20 18 18 18 20 20 20 21 23 22 20 18 16 16 12 10 12 12
14 14 5 7 6 3 2 8 7 5 5 6 5 12 18 16 4 4 11 15 16 16 17 18 19 19 20 21 20 18 19 20 20 22 23 21 20 20 23 18 13 15 12 12
6 12 3 4 6 6 6 5 5 8 9 16 13 10 6 2 6 7 13 16 17 18 17 19 20 19 20 20 21 21 20 19 19 21 22 19 20 13 17 16 13 12 14 13
6 8 6 8 9 3 4 5 2 9 4 6 4 8 19 6 5 15 18 18 19 20 20 21 21 19 19 19 20 19 19 18 17 19 19 19 18 19 18 17 15 11 13 13
5 7 8 1 3 6 7 4 5 4 7 14 9 18 10 5 7 17 17 19 18 18 19 19 19 19 18 18 17 17 16 17 16 17 18 16 16 18 19 13 16 8 13 16
5 7 4 3 5 8 4 5 5 6 8 8 13 10 4 7 6 14 16 18 17 17 16 18 18 18 17 16 14 15 14 16 13 12 15 17 16 19 18 14 11 15 12 16
8 4 6 10 2 5 5 5 6 5 9 11 12 18 5 3 6 10 15 16 17 16 16 16 17 16 16 17 16 16 15 13 12 10 10 15 17 20 16 15 14 15 14 12
2 5 6 4 3 3 4 5 5 7 7 14 11 10 4 4 11 10 14 16 16 17 17 16 16 16 17 17 17 16 15 13 12 7 2 4 9 11 10 12 14 13 12 13
18 6 11 12 13 10 13 13 9 7 7 15 16 26 22 19 16 14 14 15 15 15 15 16 17 17 18 17 17 16 15 14 14 11 6 11 9 14 11 10 11 9 13 11
8 7 6 13 20 14 18 17 15 14 15 12 20 17 21 18 9 10 10 13 14 16 18 18 19 17 18 19 19 18 17 19 18 9 13 14 10 18 12 13 12 12 11 9
9 14 11 16 9 8 17 16 13 13 15 15 21 21 8 3 6 7 10 11 13 14 16 17 19 19 18 19 19 19 20 20 17 15 18 13 15 20 15 14 14 15 13 11
10 7 5 16 3 5 9 7 5 3 6 5 4 7 3 5 6 5 9 10 11 13 14 16 17 16 16 18 18 19 18 18 18 17 15 17 16 18 14 14 16 16 13 11
12 9 8 8 1 6 2 1 2 6 5 7 10 9 7 4 6 5 4 7 9 11 13 14 13 15 15 16 17 15 16 18 18 17 19 17 16 16 16 14 16 14 13 12
12 10 4 4 3 8 7 2 2 1 1 3 5 6 3 2 3 1 2 3 5 8 9 8 11 12 13 14 15 15 18 17 18 24 22 14 14 16 15 15 14 13 10 13
3 12 5 3 2 4 2 2 3 2 2 1 3 4 3 2 2 2 2 3 6 7 7 9 8 11 13 13 14 15 16 13 18 18 17 15 14 16 15 14 14 11 12 13
3 1 3 3 4 7 5 3 3 3 5 1 3 4 3 2 2 2 1 2 4 5 8 10 9 9 11 12 11 13 14 15 13 12 10 14 15 14 14 12 12 12 12 12
4 3 1 2 4 4 3 4 3 3 2 2 4 3 4 2 3 3 1 3 3 4 6 9 9 10 10 12 11 12 13 12 11 11 12 13 14 12 10 12 11 10 10 11
3 2 4 6 4 2 4 6 1 2 4 3 4 4 5 5 6 6 4 2 0 3 4 5 6 7 9 9 10 10 11 11 11 11 13 12 11 11 11 12 11 9 10 10
4 3 4 2 3 7 8 6 6 5 6 7 7 6 8 5 7 7 5 4 3 2 4 4 6 7 7 8 9 8 9 10 9 10 11 10 11 11 11 9 8 9 9 8
9 5 5 8 10 8 1 3 6 3 5 8 5 6 9 7 9 8 6 5 3 3 2 3 5 6 8 9 9 8 8 7 7 7 9 10 9 9 7 7 8 8 8 10
6 5 3 6 4 5 10 7 9 6 7 7 6 5 6 9 8 8 7 5 5 4 3 2 3 3 4 5 6 7 7 7 7 8 7 7 6 6 6 7 6 12 12 14
Wind_Direction
194 244 253 259 254 266 277 274 275 278 285 291 281 282 278 282 276 276 269 274 288 285 302 305 307 302 300 294 287 286 286 272 264 260 260 254 256 257 249 240 246 233 220 202
230 254 274 290 266 259 261 267 272 282 285 281 289 288 281 287 279 273 274 261 280 297 304 306 304 300 294 294 291 284 276 274 270 258 257 254 252 257 254 246 237 222 206 196
253 272 301 286 272 258 265 270 281 284 297 289 289 283 284 290 267 237 164 269 291 304 307 307 305 301 296 290 289 284 279 275 272 266 255 255 246 251 255 240 231 217 207 192
263 282 282 283 273 276 276 299 290 288 301 294 328 292 321 330 287 196 224 307 323 315 311 310 309 304 299 294 290 283 278 270 268 261 253 249 242 245 240 236 227 214 203 189
264 295 290 280 269 280 261 300 293 292 286 302 284 241 281 260 280 193 290 319 316 312 310 308 308 303 299 294 288 286 276 266 266 261 248 238 239 248 249 233 222 206 194 183
263 288 272 261 292 275 295 300 290 297 232 241 237 227 293 313 358 276 318 317 313 310 307 304 305 306 301 297 291 286 284 271 268 258 245 234 236 241 234 231 216 205 191 173
308 290 255 235 265 123 180 305 300 264 232 280 188 277 262 299 233 301 310 313 315 313 308 307 308 309 306 304 299 292 283 273 267 254 245 231 229 234 244 224 209 202 198 167
286 309 220 182 247 301 322 234 275 291 293 302 294 255 286 183 165 322 323 324 323 320 321 320 319 316 311 306 300 293 286 276 265 256 248 232 227 229 233 220 205 216 173 167
261 255 257 245 272 279 135 235 297 273 256 267 241 277 280 219 250 333 331 330 331 329 329 324 322 318 314 309 302 297 292 282 263 251 251 237 227 224 229 207 204 203 164 160
275 261 283 308 304 221 243 338 263 228 285 297 290 300 273 287 322 333 326 330 328 325 325 326 325 322 316 312 307 305 302 290 270 254 245 238 229 222 218 186 190 164 156 153
265 233 274 271 226 296 230 242 233 270 264 306 314 301 272 312 334 322 326 331 332 332 326 326 323 323 317 314 315 320 317 298 283 252 238 230 232 220 185 169 164 159 148 157
215 280 252 263 0 291 259 248 225 268 310 290 291 278 1 91 323 316 328 335 337 338 333 327 323 325 327 328 330 335 321 309 293 274 239 213 222 200 158 157 159 155 151 147
204 222 276 241 164 158 223 187 245 285 274 271 279 272 161 289 319 336 340 341 340 342 340 333 332 337 334 335 337 335 327 324 318 309 39 103 145 104 113 141 149 144 135 131
266 214 240 262 292 301 277 263 240 253 269 288 256 278 304 318 331 338 348 343 344 346 342 339 338 346 338 340 340 339 340 346 349 15 62 76 82 91 75 101 74 121 133 133
255 256 250 262 271 279 261 268 262 241 247 255 283 292 295 309 331 325 340 345 351 352 354 348 342 347 343 345 344 346 353 1 2 3 56 58 70 81 72 74 85 75 78 93
268 275 298 284 276 255 264 270 259 246 260 253 263 278 274 311 303 329 357 342 346 346 353 346 339 344 350 344 346 350 359 5 354 10 45 49 62 68 57 76 77 77 65 81
249 264 267 282 60 277 270 262 205 204 198 245 264 322 338 317 331 334 340 340 342 343 353 354 340 338 345 344 349 352 355 5 10 22 31 40 49 60 56 65 75 65 71 75
242 223 233 276 289 266 293 114 276 251 272 239 275 293 305 302 294 307 346 326 335 341 354 354 337 337 347 342 350 358 1 12 9 23 34 31 44 50 49 54 59 61 57 57
228 220 234 257 225 307 298 153 177 218 169 235 278 317 317 292 260 168 349 332 316 326 340 1 335 339 343 352 358 3 9 13 9 23 22 15 40 56 56 56 55 56 68 59
1 199 225 166 251 272 334 354 160 201 195 219 248 301 306 264 334 5 43 343 336 336 348 351 17 351 358 1 6 15 12 14 20 16 13 17 35 47 52 46 49 55 59 66
339 36 238 206 239 279 270 291 159 276 356 268 248 276 222 261 24 86 36 316 311 318 340 359 5 34 8 1 12 31 17 18 2 7 11 29 39 47 44 44 42 49 57 63
299 313 211 219 237 290 140 134 282 11 272 264 246 255 249 209 155 164 199 291 322 357 0 5 12 12 13 13 19 28 23 355 1 15 29 31 32 35 37 47 52 57 62 63
298 276 309 225 248 283 231 256 254 265 287 278 252 231 219 190 194 175 178 200 10 22 22 15 20 19 15 23 18 25 6 0 1 19 24 22 29 31 30 41 45 48 47 56
248 194 262 284 215 249 258 257 250 215 254 287 258 268 198 199 182 181 170 172 154 62 26 10 19 28 29 18 21 29 4 353 9 31 29 28 34 30 27 40 42 49 51 53
280 294 256 265 276 317 283 262 294 265 252 274 266 248 228 198 190 185 181 174 163 119 80 25 23 22 13 5 15 12 5 357 44 42 31 28 31 28 27 43 39 46 40 50
233 247 233 278 353 308 287 307 332 289 294 282 249 235 232 213 201 187 184 175 166 163 152 129 92 79 34 11 14 8 3 1 16 39 29 26 26 21 25 25 43 53 47 50